Location: Anumalkud?ru
(16.4847°N, 80.6636°E)
Time: 11:19:24
(UTC+00:00)

Meteor 1-14 Rocket - Pass Details

Date: 11 April 2026
Orbit: 832 x 918 km, 81.3° (Epoch: 20 May)

Event Time Altitude Azimuth Distance (km) Brightness Sun altitude
Rises 22:54:21 0° 345° (NNW) 3,462 7.4 -21.9°
Reaches altitude 10° 22:56:53 10° 340° (NNW) 2,510 6.6 -21.3°
Maximum altitude 23:02:20 49° 267° (W) 1,091 4.3 -20.1°
Drops below altitude 10° 23:07:40 10° 193° (SSW) 2,455 6.3 -18.8°
Sets 23:10:08 0° 188° (S) 3,380 7.1 -18.3°
